User: anonymous   Login
Location: Unspecified
(0.0000°N, 0.0000°E)
Time: 23:41:35
(UTC+00:00)
Language:

INTELSAT 904 - Orbit

View from above orbital plane
View from above orbital plane
View from above satellite
View from above satellite

Ground track
Ground track

The orbit data is extracted from the following two-line orbital elements,

1 27380U 02007A   18294.79087101  .00000134  00000-0  00000+0 0  9993
2 27380   0.0683 105.4434 0002846 105.1036 149.4706  1.00272053 61060
Epoch (UTC): 21 October 2018 18:58:51
Eccentricity: 0.0002846
inclination: 0.0683°
perigee height: 35774 km
apogee height: 35798 km
right ascension of ascending node: 105.4434°
argument of perigee: 105.1036°
revolutions per day: 1.00272053
mean anomaly at epoch: 149.4706°
orbit number at epoch: 6106

The dashed part of the orbit path shows where the satellite is in the earth's shadow,  

DLR